Kuchera_Ratio
0.0 0.0 0.0 0.0 0.0 0.0 0.0 0.0 0.0 0.0 0.0 0.0 0.0 0.0 0.0 0.0 0.0 0.0 0.0 0.0 0.0 0.0 0.0 0.0 0.0 0.0 0.0 0.0 0.0 0.0 0.0 0.0 0.0 0.0 0.0 0.0 0.0 0.0 0.0 0.0 0.0 0.0 0.0 0.0 0.0 0.0 0.0 0.0 0.0 0.0 0.0 0.0
0.0 0.0 0.0 0.0 0.0 0.0 0.0 0.0 0.0 0.0 0.0 0.0 0.0 0.0 0.0 0.0 0.0 0.0 0.0 0.0 0.0 0.0 0.0 0.0 0.0 0.0 0.0 0.0 0.0 0.0 0.0 0.0 0.0 0.0 0.0 0.0 0.0 0.0 0.0 0.0 0.0 0.0 0.0 0.0 0.0 0.0 0.0 0.0 0.0 0.0 0.0 0.0
0.0 0.0 0.0 0.0 0.0 0.0 0.0 0.0 0.0 0.0 0.0 0.0 0.0 0.0 0.0 0.0 0.0 0.0 0.0 0.0 0.0 0.0 0.0 0.0 0.0 0.0 0.0 0.0 0.0 0.0 0.0 0.0 0.0 0.0 0.0 0.0 0.0 0.0 0.0 0.0 0.0 0.0 0.0 0.0 0.0 0.0 0.0 0.0 0.0 0.0 0.0 0.0
0.0 0.0 0.0 0.0 0.0 0.0 0.0 0.0 0.0 0.0 0.0 0.0 0.0 0.0 0.0 0.0 0.0 0.0 0.0 0.0 0.0 0.0 0.0 0.0 0.0 0.0 0.0 0.0 0.0 0.0 0.0 0.0 0.0 0.0 0.0 0.0 0.0 0.0 0.0 0.0 0.0 0.0 0.0 0.0 0.0 0.0 0.0 0.0 0.0 0.0 0.0 0.0
0.0 0.0 0.0 0.0 0.0 0.0 0.0 0.0 0.0 0.0 0.0 0.0 0.0 0.0 0.0 0.0 0.0 0.0 0.0 0.0 0.0 0.0 0.0 0.0 0.0 0.0 0.0 0.0 0.0 0.0 0.0 0.0 0.0 0.0 0.0 0.0 0.0 0.0 0.0 0.0 0.0 0.0 0.0 0.0 0.0 0.0 0.0 0.0 0.0 0.0 0.0 0.0
0.0 0.0 0.0 0.0 0.0 0.0 0.0 0.0 0.0 0.0 0.0 0.0 0.0 0.0 0.0 0.0 0.0 0.0 0.0 0.0 0.0 0.0 0.0 0.0 0.0 0.0 0.0 0.0 0.0 0.0 0.0 0.0 0.0 0.0 0.0 0.0 0.0 0.0 0.0 0.0 0.0 0.0 0.0 0.0 0.0 0.0 0.0 0.0 0.0 0.0 0.0 0.0
0.0 0.0 0.0 0.0 0.0 0.0 0.0 0.0 0.0 0.0 0.0 0.0 0.0 0.0 0.0 0.0 0.0 0.0 0.0 0.0 0.0 0.0 0.0 0.0 0.0 0.0 0.0 0.0 0.0 0.0 0.0 0.0 0.0 0.0 0.0 0.0 0.0 0.0 0.0 0.0 0.0 0.0 0.0 0.0 0.0 0.0 0.0 0.0 0.0 0.0 0.0 0.0
0.0 0.0 0.0 0.0 0.0 0.0 0.0 0.0 0.0 0.0 0.0 0.0 0.0 0.0 0.0 0.0 0.0 0.0 0.0 0.0 0.0 0.0 0.0 0.0 0.0 0.0 0.0 0.0 0.0 0.0 0.0 0.0 0.0 0.0 0.0 0.0 0.0 0.0 0.0 0.0 0.0 0.0 0.0 0.0 0.0 0.0 0.0 0.0 0.0 0.0 0.0 0.0
0.0 0.0 0.0 0.0 0.0 0.0 0.0 0.0 0.0 0.0 0.0 0.0 0.0 0.0 0.0 0.0 0.0 0.0 0.0 0.0 0.0 0.0 0.0 0.0 0.0 0.0 0.0 0.0 0.0 0.0 0.0 0.0 0.0 0.0 0.0 0.0 0.0 0.0 0.0 0.0 0.0 0.0 0.0 0.0 0.0 0.0 0.0 0.0 0.0 0.0 0.0 0.0
0.0 0.0 0.0 0.0 0.0 0.0 0.0 0.0 0.0 0.0 0.0 0.0 0.0 0.0 0.0 0.0 0.0 0.0 0.0 0.0 0.0 0.0 0.0 0.0 0.0 0.0 0.0 0.0 0.0 0.0 0.0 0.0 0.0 0.0 0.0 0.0 0.0 0.0 0.0 0.0 0.0 0.0 0.0 0.0 0.0 0.0 0.0 0.0 0.0 0.0 0.0 0.0
0.0 0.0 0.0 0.0 0.0 0.0 0.0 0.0 0.0 0.0 0.0 0.0 0.0 0.0 0.0 0.0 0.0 0.0 0.0 0.0 0.0 0.0 0.0 0.0 0.0 0.0 0.0 0.0 0.0 0.0 0.0 0.0 0.0 0.0 0.0 0.0 0.0 0.0 0.0 0.0 0.0 0.0 0.0 0.0 0.0 0.0 0.0 0.0 0.0 0.0 0.0 0.0
0.0 0.0 0.0 0.0 0.0 0.0 0.0 0.0 0.0 0.0 0.0 0.0 0.0 0.0 0.0 0.0 0.0 0.0 0.0 0.0 0.0 0.0 0.0 0.0 0.0 0.0 0.0 0.0 0.0 0.0 0.0 0.0 0.0 0.0 0.0 0.0 0.0 0.0 0.0 0.0 0.0 0.0 0.0 0.0 0.0 0.0 0.0 0.0 0.0 0.0 0.0 0.0
0.0 0.0 0.0 0.0 0.0 0.0 0.0 0.0 0.0 0.0 0.0 0.0 0.0 0.0 0.0 0.0 0.0 0.0 0.0 0.1 0.0 0.0 0.0 0.0 0.0 0.0 0.0 0.0 0.0 0.0 0.0 0.0 0.0 0.0 0.0 0.0 0.0 0.0 0.0 0.0 0.0 0.0 0.0 0.0 0.0 0.0 0.0 0.0 0.0 0.0 0.0 0.0
0.0 0.0 0.0 0.0 0.2 0.3 0.0 0.7 0.1 0.0 0.2 0.0 0.6 0.3 0.0 0.0 0.0 0.0 1.1 1.8 1.3 1.5 1.3 0.8 0.2 0.0 0.0 0.0 0.0 0.0 0.0 0.0 0.0 0.0 0.0 0.0 0.0 0.0 0.0 0.0 0.0 0.0 0.0 0.0 0.0 0.0 0.0 0.0 0.0 0.0 0.0 0.0
0.0 0.0 0.0 0.0 0.0 0.4 0.7 0.7 0.7 1.0 0.6 1.0 1.3 0.4 1.5 1.8 0.8 0.0 1.6 2.0 2.5 2.1 2.2 2.0 1.5 1.0 0.2 0.0 0.0 0.0 0.0 0.0 0.0 0.0 0.0 0.0 0.0 0.0 0.0 0.0 0.0 0.0 0.0 0.0 0.0 0.0 0.0 0.0 0.0 0.0 0.0 0.0
0.0 0.0 0.0 0.0 0.0 0.3 0.6 0.6 1.0 1.3 1.4 1.0 1.3 1.1 1.5 1.8 1.8 1.1 3.3 3.0 2.8 2.4 3.1 3.2 2.7 2.2 1.6 0.8 0.0 0.0 0.0 0.0 0.0 0.0 0.0 0.0 0.0 0.0 0.0 0.0 0.0 0.0 0.0 0.0 0.0 0.0 0.0 0.0 0.0 0.0 0.0 0.0
0.0 0.0 0.0 0.0 0.0 0.2 0.4 0.7 1.3 1.7 1.5 1.5 1.4 1.3 1.7 1.6 1.9 2.8 3.7 4.1 3.7 2.8 4.1 4.0 3.6 3.3 2.5 1.8 0.6 0.1 0.0 0.0 0.0 0.0 0.0 0.0 0.0 0.0 0.0 0.0 0.0 0.0 0.0 0.0 0.0 0.0 0.0 0.0 0.0 0.0 0.0 0.0
0.0 0.0 0.0 0.0 0.0 0.2 0.5 0.7 1.3 1.7 1.4 1.3 1.5 1.7 1.9 1.8 2.1 3.0 3.5 4.0 4.7 4.1 5.0 5.0 4.5 4.2 3.6 2.5 2.0 0.8 0.9 1.2 0.4 0.0 0.0 0.0 0.0 0.0 0.0 0.0 0.0 0.0 0.0 0.0 0.0 0.0 0.0 0.0 0.0 0.0 0.0 0.0
2.0 1.6 1.3 0.5 0.1 0.4 0.4 0.7 1.4 1.7 1.3 1.3 1.5 1.8 2.0 2.0 2.3 3.0 3.7 4.2 4.7 5.3 5.6 5.8 5.5 4.8 4.2 3.1 2.5 3.3 3.0 2.9 2.4 2.0 1.3 0.0 0.0 0.0 0.0 0.0 0.0 0.0 0.0 0.0 0.0 0.0 0.0 0.0 0.0 0.0 0.0 0.0
3.0 2.7 3.1 2.2 1.4 1.0 0.7 1.2 1.7 1.5 1.2 1.3 1.6 1.8 2.0 2.1 2.6 3.2 3.8 4.2 4.7 5.6 6.1 6.2 6.2 5.5 4.2 4.2 4.1 5.1 4.8 4.0 4.3 3.7 3.2 1.7 0.5 1.5 0.9 0.0 0.0 0.0 0.0 0.0 0.0 0.0 0.0 0.0 0.0 0.0 0.0 0.0
4.0 3.8 4.0 3.6 3.8 3.2 2.5 2.5 2.3 1.7 1.4 1.7 1.8 2.0 2.2 2.5 3.2 3.6 4.0 4.2 4.3 5.5 6.0 6.0 6.3 5.8 5.5 5.0 6.7 7.2 7.0 6.5 5.5 5.1 5.5 4.6 2.5 2.3 2.6 1.3 0.3 0.0 0.0 0.0 0.0 0.0 0.0 0.0 0.0 0.0 0.0 0.0
4.9 5.0 4.7 5.8 6.3 4.5 5.0 4.3 3.3 2.3 2.2 2.1 2.0 2.5 2.8 3.3 3.7 3.9 4.2 4.1 4.1 5.1 5.7 5.7 6.1 6.4 6.8 7.1 8.2 8.4 8.5 8.0 6.8 6.4 6.2 7.5 4.7 3.4 4.4 4.5 3.1 1.0 0.0 0.0 0.0 0.0 0.0 0.0 0.0 0.0 0.0 0.0
7.0 7.3 7.3 7.2 7.5 7.4 6.8 6.4 4.8 3.6 3.3 3.1 3.2 3.7 4.0 4.5 4.7 4.5 4.7 4.5 5.0 5.5 5.7 5.9 6.3 7.2 7.8 8.2 9.0 9.4 9.4 8.9 8.2 7.8 7.7 8.7 7.9 4.8 5.0 5.3 4.1 2.5 1.5 0.7 0.0 0.0 0.0 0.0 0.0 0.0 0.0 0.0
10.3 10.8 11.1 12.1 10.5 10.1 8.8 8.0 6.8 6.1 5.9 5.7 5.4 5.3 5.4 5.8 5.9 6.0 6.2 6.2 6.8 7.0 6.8 7.2 7.5 8.3 8.5 8.3 9.5 10.2 11.9 11.3 10.5 11.0 10.4 9.8 8.6 8.5 6.7 3.9 5.0 4.5 4.8 3.0 1.0 0.1 0.0 0.0 0.0 0.0 0.0 0.0
13.0 13.7 13.6 13.2 13.2 13.3 12.1 10.5 8.5 8.5 8.2 8.3 7.9 7.4 7.1 7.2 7.3 7.9 8.4 8.1 8.8 8.9 8.8 9.3 9.2 9.8 9.7 9.3 10.3 10.6 12.6 10.3 9.8 9.4 9.3 10.0 8.8 9.7 10.4 9.1 6.3 6.0 5.8 7.0 6.9 3.3 2.0 0.6 0.0 0.0 0.0 0.0
13.4 13.8 13.9 14.5 14.4 13.8 13.2 12.7 12.2 12.0 10.2 9.6 8.6 8.9 8.7 8.8 9.2 10.0 10.5 9.4 10.0 9.8 10.7 10.8 10.9 11.2 11.0 10.8 11.0 10.7 10.7 10.8 9.5 10.0 11.8 11.2 12.0 9.6 10.8 11.4 8.1 6.6 6.0 10.3 10.1 9.5 8.0 3.7 0.2 0.0 0.0 0.0
14.1 13.5 13.4 13.9 14.1 13.9 13.9 12.2 11.0 10.7 10.0 9.7 10.5 10.0 10.2 10.1 10.9 11.2 11.2 11.2 10.5 11.0 11.5 11.6 11.8 11.7 11.5 11.8 11.7 12.5 13.6 13.5 13.2 12.5 12.5 12.3 12.7 12.6 10.8 9.8 7.4 7.9 7.9 11.4 10.0 9.9 9.5 11.4 9.1 3.7 3.3 1.5
13.4 13.2 13.2 13.4 13.7 13.6 13.7 13.9 12.1 11.3 10.8 10.9 11.1 11.5 11.1 11.5 12.0 12.0 12.2 12.0 12.0 11.5 12.0 12.2 12.3 12.2 12.3 12.5 12.3 12.5 13.9 13.7 13.4 12.9 12.9 12.8 12.4 12.2 13.7 12.9 11.8 7.2 6.3 8.5 10.7 14.9 14.8 12.8 9.1 11.6 8.4 3.6
13.8 13.9 14.5 14.4 14.3 14.0 14.4 13.9 13.9 13.9 13.8 13.1 12.7 12.6 13.0 13.1 12.7 12.7 12.8 12.7 12.7 12.4 12.5 12.6 12.6 12.8 13.0 13.0 12.9 13.0 14.5 14.5 14.3 13.9 13.6 13.3 13.4 13.4 13.9 13.9 12.8 10.0 7.8 8.2 7.2 10.8 12.2 15.7 15.5 14.7 8.8 6.0
14.3 14.9 15.8 16.3 17.0 17.6 17.2 17.1 16.5 16.9 17.1 16.4 15.7 15.2 13.8 13.6 13.3 13.4 13.3 13.3 13.2 13.0 12.6 13.2 13.3 13.5 13.5 13.5 13.5 13.4 13.7 13.9 14.6 14.5 14.2 13.8 13.7 14.2 13.8 14.0 13.5 13.5 8.4 6.7 6.1 6.8 6.7 7.7 13.7 13.3 7.7 11.0
14.6 15.9 16.0 16.6 17.0 17.0 16.9 17.7 17.2 16.0 15.7 15.9 15.3 14.9 14.9 14.5 13.9 13.8 13.9 13.5 13.7 13.9 13.7 13.7 13.9 13.9 13.9 13.8 13.9 13.4 13.7 14.7 14.7 14.5 14.4 13.3 14.1 14.4 13.4 14.1 15.5 14.3 12.9 8.3 6.6 6.0 6.2 6.6 6.5 8.7 9.4 15.4